Weather History for TNCB - December, 2011

Change the Weather History Date:

Thursday, December 22, 2011

  Actual Average Record
Temperature  
Mean Temperature 78 °F -  
Max Temperature 82 °F 84 °F 89 °F (2006)
Min Temperature 75 °F 77 °F 73 °F (2005)
Cooling Degree Days 14    
Growing Degree Days 28 (Base 50)    
Moisture  
Dew Point 73 °F    
Average Humidity 78    
Maximum Humidity 100    
Minimum Humidity 68    
Precipitation  
Precipitation 0.12 in - - ()
Sea Level Pressure  
Sea Level Pressure 29.91 in    
Wind  
Wind Speed 10 mph ()    
Max Wind Speed 18 mph    
Max Gust Speed 30 mph    
Visibility 7.4 miles    
Events Rain    
Averages and records for this station are not official NWS values.
T = Trace of Precipitation, MM = Missing Value Source: Averaged Metar Reports

Daily Weather History Graph

Daily Weather History Graph

Search for Another Location

Airport or City:

Trip Planner

Search our weather history database for the weather conditions in past years. The results will help you decide how hot, cold, wet, or windy it might be!

Date:

Astronomy

Dec. 22, 2011 Rise Set
Actual Time 6:49 AM AST 6:14 PM AST
Civil Twilight 6:26 AM AST 6:37 PM AST
Nautical Twilight 5:59 AM AST 7:03 PM AST
Astronomical Twilight 5:33 AM AST 7:29 PM AST
Moon 4:31 AM AST (12/22) 4:20 PM AST (12/22)
Length of Visible Light 12h 10m
Length of Day
11h 24m
Waning Crescent, 6% of the Moon is Illuminated
Dec 22
Waning Crescent
Dec 24
New
Jan 1
First Quarter
Jan 9
Full
Jan 16
Last Quarter

Hourly Weather History & Observations

Time (AST) Temp. Heat Index Dew Point Humidity Pressure Visibility Wind Dir Wind Speed Gust Speed Precip Events Conditions
1:00 AM 78.8 °F - 69.8 °F 74% 29.92 in - North - - N/A   Unknown
3:00 AM 80.6 °F 84.6 °F 71.6 °F 74% 29.86 in - North - - N/A   Unknown
4:00 AM 80.6 °F 84.6 °F 71.6 °F 74% 29.86 in - North - - N/A   Unknown
5:00 AM 80 °F - 72 °F 71%  in - Calm Calm - -   Clear
5:00 AM 80.6 °F 84.6 °F 71.6 °F 74% 29.86 in - North - - N/A   Unknown
6:00 AM 80.6 °F 85.4 °F 73.4 °F 79% 29.89 in - North - - N/A   Unknown
7:00 AM 80.6 °F 85.4 °F 73.4 °F 79% 29.89 in - North - - N/A   Unknown
8:00 AM 78.8 °F - 73.4 °F 83% 29.92 in 6.2 mi East 18.4 mph 29.9 mph N/A Rain Light Rain Showers
9:00 AM 75.2 °F - 75.2 °F 100% 29.95 in 3.1 mi East 10.4 mph - N/A Rain Rain Showers
10:00 AM 78.8 °F - 78.8 °F 100% 29.95 in 6.2 mi East 16.1 mph - N/A Rain Rain Showers
12:00 PM 78.8 °F - 75.2 °F 89% 29.95 in 6.2 mi East 15.0 mph - N/A   Scattered Clouds
1:00 PM 80.6 °F 85.4 °F 73.4 °F 79% 29.95 in 6.2 mi East 16.1 mph - N/A   Scattered Clouds
2:00 PM 81 °F - 74 °F 75%  in 6 mi Calm Calm - -   Clear
2:00 PM 80.6 °F 86.2 °F 75.2 °F 84% 29.89 in - North - - N/A   Unknown
3:00 PM 82.4 °F 88.2 °F 73.4 °F 74% 29.89 in 6.2 mi East 17.3 mph - N/A   Scattered Clouds
4:30 PM 82.4 °F 88.2 °F 73.4 °F 74% 29.89 in 6.2 mi East 17.3 mph - N/A   Scattered Clouds
5:00 PM 82 °F - 73 °F 68% 29.89 in 16 mi East 17.3 mph - -   Partly Cloudy
5:00 PM 82.4 °F 88.2 °F 73.4 °F 74% 29.89 in 6.2 mi East 17.3 mph - N/A   Scattered Clouds
6:00 PM 80.6 °F 85.4 °F 73.4 °F 79% 29.89 in 6.2 mi East 17.3 mph - N/A   Partly Cloudy
8:00 PM 80 °F - 72 °F 71% 29.93 in 16 mi East 16.1 mph - -   Scattered Clouds
8:00 PM 80.6 °F 84.6 °F 71.6 °F 74% 29.92 in 6.2 mi East 16.1 mph - N/A   Partly Cloudy
9:00 PM 80.6 °F 85.4 °F 73.4 °F 79% 29.95 in 6.2 mi Calm Calm - N/A   Partly Cloudy
10:00 PM 80.6 °F 84.6 °F 71.6 °F 74% 29.95 in - North - - N/A   Unknown
11:00 PM 80.6 °F 85.4 °F 73.4 °F 79% 29.95 in - Calm Calm - N/A   Unknown